{"data":{"norad_id":65235,"epoch":"2026-05-25T02:57:15.274080Z","epoch_age_seconds":57739,"freshness":"FRESH","line1":"1 65235U 25179A   26145.12309345  .00002619  00000+0  18550-3 0  9999","line2":"2 65235  97.4485 188.0042 0002129 129.0556 231.0861 15.05655574 43387","mean_motion":15.05655574,"eccentricity":0.0002129,"inclination_deg":97.4485,"raan_deg":188.0042,"arg_perigee_deg":129.0556,"mean_anomaly_deg":231.0861,"bstar":0.0001855,"rev_number":4338,"period_min":95.639402853232,"perigee_km":548.01916374757,"apogee_km":550.96894905138,"semimajor_km":6927.6310563995,"source":"CELESTRAK","updated_at":"2026-05-25T13:38:20.723773Z"}}